Location: Rio Negrinho
(26.2394°S, 49.4999°W)
Time: 20:46:53
(UTC+00:00)

Cosmos 1844 - Pass Details

Date: 02 October 2020
Orbit: 824 x 866 km, 70.9° (Epoch: 20 October)

Event Time Altitude Azimuth Distance (km) Brightness Sun altitude
Rises 08:26:48 0° 336° (NNW) 3,366 6.5 -7.3°
Reaches altitude 10° 08:29:14 10° 333° (NNW) 2,444 5.8 -6.8°
Maximum altitude 08:34:49 68° 250° (WSW) 912 3.7 -5.6°
Drops below altitude 10° 08:40:32 10° 167° (SSE) 2,500 6.4 -4.3°
Sets 08:43:02 0° 164° (SSE) 3,448 7.2 -3.7°
